Total_Precipitation_Accumulation
2.01 1.66 2.23 2.98 1.95 1.59 1.89 1.02 0.26 0.11 0.02 0.02 0.02 0.01 0.01 0.00 0.00 0.00 0.00 0.00 0.00 0.00 0.00 0.00 0.00 0.00 0.00 0.00 0.00 0.00 0.00 0.00
2.40 2.38 1.94 1.35 2.00 1.67 1.20 0.70 0.40 0.17 0.06 0.03 0.05 0.05 0.02 0.00 0.00 0.00 0.00 0.00 0.00 0.00 0.00 0.00 0.00 0.00 0.00 0.00 0.00 0.00 0.00 0.00
2.56 3.72 2.43 1.38 1.38 1.46 0.80 0.43 0.44 0.38 0.19 0.12 0.04 0.07 0.08 0.02 0.00 0.00 0.00 0.00 0.00 0.00 0.00 0.00 0.00 0.00 0.00 0.00 0.00 0.00 0.00 0.00
1.05 1.79 1.18 0.71 0.83 0.80 0.55 0.40 0.27 0.48 0.31 0.11 0.04 0.04 0.03 0.00 0.00 0.00 0.00 0.00 0.00 0.00 0.00 0.00 0.00 0.00 0.00 0.00 0.00 0.00 0.00 0.00
0.71 0.81 0.78 0.54 0.39 0.37 0.19 0.18 0.19 0.28 0.28 0.12 0.02 0.02 0.00 0.00 0.00 0.00 0.00 0.00 0.00 0.00 0.00 0.00 0.00 0.00 0.00 0.00 0.00 0.00 0.00 0.00
0.87 0.69 0.86 0.72 0.46 0.37 0.25 0.17 0.05 0.12 0.11 0.07 0.01 0.00 0.00 0.00 0.00 0.00 0.00 0.00 0.00 0.00 0.00 0.00 0.00 0.00 0.00 0.00 0.00 0.00 0.00 0.00
0.82 0.66 0.65 0.60 0.46 0.40 0.29 0.16 0.07 0.10 0.06 0.06 0.00 0.00 0.01 0.00 0.00 0.00 0.00 0.00 0.00 0.00 0.00 0.00 0.00 0.00 0.00 0.00 0.00 0.00 0.00 0.00
0.75 0.90 0.57 0.50 0.48 0.42 0.39 0.20 0.08 0.10 0.06 0.07 0.01 0.01 0.00 0.00 0.00 0.00 0.00 0.00 0.00 0.00 0.00 0.00 0.00 0.00 0.00 0.00 0.00 0.00 0.00 0.00
0.57 0.62 0.85 0.55 0.31 0.32 0.25 0.19 0.15 0.11 0.08 0.08 0.05 0.02 0.00 0.00 0.00 0.01 0.00 0.00 0.00 0.00 0.00 0.00 0.00 0.00 0.00 0.00 0.00 0.00 0.00 0.00
0.18 0.30 0.54 0.57 0.33 0.15 0.11 0.07 0.08 0.11 0.12 0.08 0.03 0.02 0.02 0.01 0.04 0.03 0.00 0.00 0.00 0.00 0.00 0.00 0.00 0.00 0.00 0.00 0.00 0.00 0.00 0.00
0.09 0.19 0.25 0.25 0.22 0.11 0.05 0.04 0.05 0.07 0.08 0.09 0.06 0.06 0.08 0.04 0.02 0.00 0.01 0.02 0.00 0.00 0.00 0.00 0.00 0.00 0.00 0.00 0.00 0.00 0.00 0.00
0.01 0.07 0.13 0.21 0.11 0.13 0.07 0.04 0.02 0.06 0.09 0.04 0.08 0.10 0.08 0.07 0.05 0.03 0.05 0.05 0.00 0.00 0.00 0.00 0.00 0.00 0.00 0.00 0.00 0.00 0.00 0.00
0.00 0.00 0.03 0.12 0.04 0.07 0.05 0.06 0.02 0.02 0.05 0.02 0.05 0.07 0.05 0.07 0.09 0.08 0.10 0.05 0.01 0.00 0.00 0.00 0.00 0.00 0.00 0.00 0.00 0.00 0.00 0.00
0.00 0.00 0.01 0.07 0.03 0.01 0.01 0.04 0.01 0.00 0.01 0.03 0.06 0.10 0.05 0.08 0.09 0.05 0.05 0.04 0.02 0.00 0.00 0.00 0.00 0.00 0.00 0.00 0.00 0.00 0.00 0.00
0.00 0.00 0.00 0.03 0.00 0.00 0.00 0.01 0.01 0.00 0.01 0.04 0.04 0.05 0.05 0.03 0.10 0.07 0.05 0.01 0.00 0.00 0.00 0.01 0.01 0.01 0.00 0.00 0.00 0.00 0.00 0.00
0.00 0.00 0.00 0.00 0.00 0.01 0.00 0.00 0.01 0.02 0.06 0.03 0.04 0.05 0.05 0.02 0.01 0.01 0.02 0.00 0.00 0.00 0.02 0.02 0.03 0.02 0.01 0.01 0.00 0.00 0.00 0.00
0.00 0.00 0.00 0.00 0.00 0.00 0.01 0.00 0.01 0.03 0.04 0.05 0.03 0.02 0.03 0.03 0.02 0.06 0.02 0.01 0.04 0.05 0.04 0.05 0.06 0.05 0.05 0.03 0.04 0.04 0.03 0.02
0.00 0.01 0.00 0.00 0.00 0.00 0.02 0.06 0.02 0.02 0.02 0.02 0.05 0.04 0.01 0.04 0.05 0.03 0.06 0.04 0.09 0.12 0.16 0.14 0.19 0.15 0.10 0.12 0.13 0.11 0.09 0.13
0.00 0.00 0.00 0.00 0.00 0.02 0.06 0.11 0.10 0.11 0.05 0.04 0.11 0.08 0.03 0.07 0.15 0.11 0.08 0.20 0.22 0.29 0.31 0.29 0.32 0.39 0.50 0.46 0.31 0.23 0.14 0.10
0.00 0.00 0.01 0.02 0.11 0.23 0.20 0.16 0.20 0.29 0.23 0.12 0.23 0.14 0.10 0.13 0.21 0.35 0.29 0.28 0.28 0.34 0.44 0.61 0.69 0.62 0.46 0.33 0.25 0.20 0.24 0.23